This demonstration page uses our WeatherBlox Daily Observations layout. Learn more.

Left ArrowRight Arrow

Hourly Observations for December 3, 2022

Temp ( °F °C ) Dew Point ( °F °C ) Humidity (%) Winds ( mph kmh ) Pressure ( in mb ) Visibility ( mi km ) Precip ( " mm )
12:59 am 00:59 Mostly Cloudy 52 11.1 50 10 93 93 S 7 11 30.43 1031 10 16 0.00 0.00
1:59 am 01:59 Partly Cloudy 53 11.7 50 10 89 89 S 8 13 30.42 1030 10 16 0.00 0.00
2:59 am 02:59 Mostly Cloudy 56 13.3 51 10.6 84 84 S 9 15 30.39 1029 10 16 0.00 0.00
3:59 am 03:59 Mostly Cloudy 57 13.9 51 10.6 80 80 S 7 11 30.36 1028 10 16 0.00 0.00
4:59 am 04:59 Mostly Cloudy 58 14.4 51 10.6 78 78 S 10 17 30.35 1028 10 16 0.00 0.00
5:59 am 05:59 Cloudy 60 15.6 51 10.6 72 72 S 9 15 30.35 1028 10 16 0.00 0.00
6:31 am 06:31 Cloudy with Light Rain 60 15.6 52 11.1 75 75 S 8 13 30.34 1027 10 16 0.01 0.13
6:59 am 06:59 Cloudy with Light Rain 59 15 52 11.1 77 77 SSW 10 17 30.35 1028 9 14 0.01 0.13
7:59 am 07:59 Cloudy with Light Rain 58 14.4 54 12.2 87 87 S 9 15 30.33 1027 7 11 0.03 0.76
8:59 am 08:59 Cloudy with Light Rain 59 15 55 12.8 87 87 S 10 17 30.29 1026 10 16 0.01 0.25
9:59 am 09:59 Cloudy with Light Rain 62 16.7 55 12.8 78 78 S 13 20 30.29 1026 10 16 0.01 0.13
10:59 am 10:59 Cloudy 62 16.7 56 13.3 80 80 SSW 9 15 30.28 1025 10 16 0.01 0.25
11:59 am 11:59 Cloudy 63 17.2 56 13.3 78 78 SW 6 9 30.27 1025 10 16 0.00 0.00
12:59 pm 12:59 Cloudy with Light Rain 62 16.7 58 14.4 86 86 SSW 13 20 30.22 1023 4 6 0.03 0.76
1:59 pm 13:59 Cloudy with Light Rain 62 16.7 59 15 90 90 SW 13 20 30.21 1023 5 8 0.04 1.02
2:59 pm 14:59 Cloudy with Light Rain 61 16.1 59 15 93 93 SSW 12 19 30.20 1023 8 13 0.01 0.25
3:59 pm 15:59 Mostly Cloudy 62 16.7 60 15.6 93 93 SSW 10 17 30.17 1022 10 16 0.01 0.13
4:59 pm 16:59 Mostly Cloudy 62 16.7 59 15 90 90 SSW 12 19 30.16 1021 10 16 0.00 0.00
5:59 pm 17:59 Mostly Cloudy 62 16.7 59 15 90 90 SW 10 17 30.16 1022 10 16 0.00 0.00
6:59 pm 18:59 Mostly Cloudy 61 16.1 58 14.4 90 90 SW 12 19 30.17 1022 10 16 0.00 0.00
7:59 pm 19:59 Mostly Cloudy 61 16.1 58 14.4 90 90 WSW 14 22 30.17 1022 10 16 0.00 0.00
8:59 pm 20:59 Mostly Cloudy 61 16.1 58 14.4 90 90 WSW 10 17 30.17 1022 10 16 0.00 0.00
9:46 pm 21:46 Cloudy 61 16.1 58 14.4 90 90 WSW 9 15 30.18 1022 10 16 0.00 0.00
9:59 pm 21:59 Cloudy 60 15.6 58 14.4 93 93 WSW 9 15 30.18 1022 10 16 0.00 0.00
10:51 pm 22:51 Mostly Cloudy 58 14.4 57 13.9 97 97 W 9 15 30.19 1022 9 14 0.00 0.00
10:59 pm 22:59 Mostly Cloudy 58 14.4 57 13.9 97 97 W 10 17 30.19 1022 9 14 0.00 0.00
11:32 pm 23:32 Partly Cloudy 57 13.9 56 13.3 96 96 WNW 14 22 30.18 1022 9 14 0.00 0.00
11:59 pm 23:59 Partly Cloudy 57 13.9 56 13.3 96 96 NW 15 24 30.18 1022 10 16 0.00 0.00

Powered by AerisWeather